Language: 


Des rapports , des résumés tant et plus, au choix de chacun....


Données statistiques de la station
Quotidien Rapport Avril 28, 2017 Unités:  Métrique    Anglais   les deux
« Précédent Jour
Suivant Jour »
Quotidien Hebdomadaire Mensuel Annuel Actuel
  Haut: Bas: Moyen:
Température: 16.1 °C 5.4 °C 9.9 °C
Pt de rosée: 10.0 °C -1.0 °C 3.1 °C
Humidité: 96 % 43 % 64 %
Vitesse du vent: 16.9 km/h 0.0 km/h 5.3 km/h
Rafales: 25.6 km/h - -
Vent:- - West
Pression: 1016.8 hPa 1013.1 hPa -
Précipitation: 0.0 mm    
Historical Graphs
 
 
Données statistiques pour Avril 28, 2017
Heure Température Point de rosée Pression Vent Vitesse du vent Refales Humidité Pluie (taux horaire)
00:04 6.5 °C 1.0 °C 1014.1 hPa Calm   3.2 km/h 69 % 0.0 mm
00:09 6.5 °C 2.0 °C 1015.1 hPa WSW 4.7 km/h 5.5 km/h 70 % 0.0 mm
00:14 6.5 °C 2.0 °C 1015.1 hPa WSW 5.0 km/h 6.1 km/h 70 % 0.0 mm
00:19 6.5 °C 2.0 °C 1015.1 hPa West 6.1 km/h 7.6 km/h 70 % 0.0 mm
00:24 6.6 °C 2.0 °C 1015.1 hPa West 4.0 km/h 7.6 km/h 70 % 0.0 mm
00:29 6.6 °C 2.0 °C 1015.1 hPa SW 2.6 km/h 7.6 km/h 71 % 0.0 mm
00:34 6.7 °C 2.0 °C 1015.1 hPa West 4.7 km/h 7.6 km/h 71 % 0.0 mm
00:40 6.7 °C 2.0 °C 1015.1 hPa Calm   6.1 km/h 71 % 0.0 mm
00:45 6.7 °C 2.0 °C 1015.1 hPa Calm   5.8 km/h 71 % 0.0 mm
00:50 6.7 °C 2.0 °C 1015.1 hPa West 7.6 km/h 8.7 km/h 72 % 0.0 mm
00:55 6.8 °C 2.0 °C 1015.1 hPa West 4.0 km/h 9.3 km/h 72 % 0.0 mm
01:00 6.8 °C 2.0 °C 1015.1 hPa West 6.9 km/h 9.3 km/h 73 % 0.0 mm
01:05 6.8 °C 2.0 °C 1015.1 hPa West 6.1 km/h 7.6 km/h 73 % 0.0 mm
01:10 6.9 °C 3.0 °C 1015.1 hPa West 7.2 km/h 8.7 km/h 73 % 0.0 mm
01:15 6.9 °C 3.0 °C 1015.1 hPa West 6.9 km/h 8.7 km/h 73 % 0.0 mm
01:20 7.0 °C 3.0 °C 1015.1 hPa West 6.1 km/h 8.7 km/h 73 % 0.0 mm
01:25 7.0 °C 3.0 °C 1015.1 hPa West 5.8 km/h 9.0 km/h 73 % 0.0 mm
01:30 7.0 °C 3.0 °C 1015.1 hPa West 5.8 km/h 9.0 km/h 74 % 0.0 mm
01:35 7.0 °C 3.0 °C 1015.1 hPa West 5.0 km/h 6.9 km/h 74 % 0.0 mm
01:40 7.0 °C 3.0 °C 1014.1 hPa West 4.0 km/h 6.9 km/h 74 % 0.0 mm
01:45 7.0 °C 3.0 °C 1014.1 hPa WSW 6.9 km/h 7.9 km/h 74 % 0.0 mm
01:50 7.0 °C 3.0 °C 1015.1 hPa West 6.1 km/h 9.3 km/h 75 % 0.0 mm
01:55 7.0 °C 3.0 °C 1015.1 hPa West 6.1 km/h 9.3 km/h 75 % 0.0 mm
02:00 6.9 °C 3.0 °C 1015.1 hPa West 5.5 km/h 8.7 km/h 76 % 0.0 mm
02:05 6.8 °C 3.0 °C 1014.1 hPa WSW 4.7 km/h 6.9 km/h 76 % 0.0 mm
02:10 6.8 °C 3.0 °C 1014.1 hPa Calm   6.4 km/h 76 % 0.0 mm
02:16 6.8 °C 3.0 °C 1014.1 hPa Calm   6.4 km/h 77 % 0.0 mm
02:21 6.7 °C 3.0 °C 1014.1 hPa West 5.0 km/h 5.0 km/h 77 % 0.0 mm
02:26 6.7 °C 3.0 °C 1014.1 hPa WSW 6.4 km/h 6.4 km/h 77 % 0.0 mm
02:31 6.6 °C 3.0 °C 1014.1 hPa WSW 6.1 km/h 6.9 km/h 77 % 0.0 mm
02:36 6.6 °C 3.0 °C 1014.1 hPa WSW 2.1 km/h 6.9 km/h 78 % 0.0 mm
02:41 6.6 °C 3.0 °C 1014.1 hPa WSW 4.0 km/h 6.9 km/h 78 % 0.0 mm
02:46 6.5 °C 3.0 °C 1014.1 hPa Calm   6.9 km/h 79 % 0.0 mm
02:51 6.5 °C 3.0 °C 1014.1 hPa Calm   6.9 km/h 79 % 0.0 mm
02:56 6.4 °C 3.0 °C 1014.1 hPa Calm   6.9 km/h 80 % 0.0 mm
03:01 6.4 °C 3.0 °C 1014.1 hPa Calm   6.1 km/h 80 % 0.0 mm
03:06 6.4 °C 3.0 °C 1014.1 hPa Calm   5.8 km/h 81 % 0.0 mm
03:11 6.3 °C 3.0 °C 1014.1 hPa Calm     81 % 0.0 mm
03:16 6.3 °C 3.0 °C 1014.1 hPa Calm     81 % 0.0 mm
03:21 6.3 °C 4.0 °C 1014.1 hPa West 4.3 km/h 5.0 km/h 82 % 0.0 mm
03:26 6.3 °C 4.0 °C 1014.1 hPa WSW 4.3 km/h 5.0 km/h 82 % 0.0 mm
03:31 6.4 °C 4.0 °C 1014.1 hPa Calm   6.1 km/h 83 % 0.0 mm
03:36 6.4 °C 4.0 °C 1013.1 hPa SSW 3.2 km/h 6.1 km/h 82 % 0.0 mm
03:41 6.5 °C 4.0 °C 1013.1 hPa SW 4.3 km/h 6.1 km/h 83 % 0.0 mm
03:47 6.5 °C 4.0 °C 1013.1 hPa WSW 3.5 km/h 6.1 km/h 83 % 0.0 mm
03:52 6.5 °C 4.0 °C 1014.1 hPa SW 4.3 km/h 6.9 km/h 83 % 0.0 mm
03:57 6.4 °C 4.0 °C 1014.1 hPa West 1.8 km/h 6.9 km/h 83 % 0.0 mm
04:02 6.3 °C 4.0 °C 1014.1 hPa WSW 4.0 km/h 6.1 km/h 83 % 0.0 mm
04:07 6.2 °C 4.0 °C 1014.1 hPa WSW 4.3 km/h 6.4 km/h 84 % 0.0 mm
04:12 6.1 °C 4.0 °C 1014.1 hPa WSW 3.5 km/h 6.4 km/h 84 % 0.0 mm
04:17 6.2 °C 4.0 °C 1014.1 hPa Calm   5.0 km/h 85 % 0.0 mm
04:22 6.2 °C 4.0 °C 1014.1 hPa West 1.8 km/h 5.0 km/h 85 % 0.0 mm
04:27 6.2 °C 4.0 °C 1014.1 hPa West 4.0 km/h 5.8 km/h 85 % 0.0 mm
04:32 6.3 °C 4.0 °C 1014.1 hPa WSW 4.3 km/h 6.1 km/h 85 % 0.0 mm
04:37 6.2 °C 4.0 °C 1014.1 hPa SSW 4.3 km/h 6.1 km/h 86 % 0.0 mm
04:42 6.1 °C 4.0 °C 1014.1 hPa West 5.0 km/h 6.1 km/h 85 % 0.0 mm
04:47 5.9 °C 4.0 °C 1014.1 hPa Calm   6.1 km/h 86 % 0.0 mm
04:52 5.8 °C 4.0 °C 1013.1 hPa WSW 1.4 km/h 5.5 km/h 85 % 0.0 mm
04:57 5.8 °C 4.0 °C 1013.1 hPa Calm   2.6 km/h 86 % 0.0 mm
05:02 5.8 °C 4.0 °C 1013.1 hPa Calm     86 % 0.0 mm
05:07 5.8 °C 4.0 °C 1014.1 hPa Calm     87 % 0.0 mm
05:13 5.8 °C 4.0 °C 1014.1 hPa SSW 4.0 km/h 4.0 km/h 87 % 0.0 mm
05:18 5.8 °C 4.0 °C 1014.1 hPa Calm   4.0 km/h 87 % 0.0 mm
05:23 5.9 °C 4.0 °C 1013.1 hPa WSW 5.5 km/h 5.5 km/h 87 % 0.0 mm
05:28 6.0 °C 4.0 °C 1013.1 hPa WSW 5.5 km/h 5.8 km/h 87 % 0.0 mm
05:33 6.0 °C 4.0 °C 1013.1 hPa WSW 6.4 km/h 6.4 km/h 87 % 0.0 mm
05:38 6.1 °C 4.0 °C 1013.1 hPa WNW 6.1 km/h 6.9 km/h 88 % 0.0 mm
05:43 6.0 °C 4.0 °C 1013.1 hPa WNW 5.8 km/h 9.0 km/h 88 % 0.0 mm
05:48 6.0 °C 4.0 °C 1013.1 hPa Calm   9.0 km/h 88 % 0.0 mm
05:53 6.0 °C 4.0 °C 1013.1 hPa WSW 6.1 km/h 7.6 km/h 88 % 0.0 mm
05:58 5.8 °C 4.0 °C 1013.1 hPa Calm   6.4 km/h 88 % 0.0 mm
06:03 5.7 °C 4.0 °C 1013.1 hPa Calm   6.4 km/h 88 % 0.0 mm
06:08 5.7 °C 4.0 °C 1013.1 hPa West 5.5 km/h 6.1 km/h 89 % 0.0 mm
06:13 5.7 °C 4.0 °C 1013.1 hPa West 5.8 km/h 6.9 km/h 89 % 0.0 mm
06:18 5.6 °C 4.0 °C 1013.1 hPa West 6.1 km/h 6.9 km/h 89 % 0.0 mm
06:23 5.6 °C 4.0 °C 1013.1 hPa WNW 4.3 km/h 6.4 km/h 89 % 0.0 mm
06:28 5.6 °C 4.0 °C 1013.1 hPa WNW 2.6 km/h 6.1 km/h 90 % 0.0 mm
06:33 5.4 °C 4.0 °C 1013.1 hPa WNW 4.3 km/h 5.5 km/h 90 % 0.0 mm
06:38 5.4 °C 4.0 °C 1013.1 hPa WNW 6.1 km/h 6.1 km/h 90 % 0.0 mm
06:43 5.5 °C 4.0 °C 1013.1 hPa West 5.8 km/h 7.6 km/h 90 % 0.0 mm
06:48 5.5 °C 4.0 °C 1013.1 hPa West 5.5 km/h 7.6 km/h 90 % 0.0 mm
06:53 5.6 °C 5.0 °C 1013.1 hPa West 6.4 km/h 7.2 km/h 91 % 0.0 mm
06:59 5.6 °C 5.0 °C 1013.1 hPa West 3.2 km/h 7.2 km/h 91 % 0.0 mm
07:04 5.6 °C 5.0 °C 1013.1 hPa West 5.0 km/h 8.7 km/h 91 % 0.0 mm
07:09 5.7 °C 5.0 °C 1014.1 hPa West 4.7 km/h 9.7 km/h 92 % 0.0 mm
07:14 5.8 °C 5.0 °C 1014.1 hPa WSW 6.4 km/h 9.7 km/h 92 % 0.0 mm
07:19 5.9 °C 5.0 °C 1014.1 hPa West 9.0 km/h 9.7 km/h 92 % 0.0 mm
07:24 5.9 °C 5.0 °C 1013.1 hPa West 6.4 km/h 9.3 km/h 93 % 0.0 mm
07:29 6.0 °C 5.0 °C 1013.1 hPa West 3.2 km/h 9.7 km/h 93 % 0.0 mm
07:34 6.0 °C 5.0 °C 1013.1 hPa WSW 9.0 km/h 9.7 km/h 93 % 0.0 mm
07:39 6.1 °C 5.0 °C 1013.1 hPa WSW 4.3 km/h 9.7 km/h 93 % 0.0 mm
07:44 6.2 °C 6.0 °C 1013.1 hPa West 7.6 km/h 9.7 km/h 93 % 0.0 mm
07:49 6.3 °C 6.0 °C 1013.1 hPa West 7.9 km/h 11.6 km/h 93 % 0.0 mm
07:54 6.4 °C 6.0 °C 1013.1 hPa West 8.7 km/h 11.9 km/h 94 % 0.0 mm
07:59 6.4 °C 6.0 °C 1013.1 hPa West 10.1 km/h 11.9 km/h 94 % 0.0 mm
08:04 6.5 °C 6.0 °C 1013.1 hPa WSW 5.5 km/h 10.5 km/h 95 % 0.0 mm
08:09 6.7 °C 6.0 °C 1013.1 hPa West 5.5 km/h 10.5 km/h 95 % 0.0 mm
08:14 7.3 °C 7.0 °C 1013.1 hPa West 9.0 km/h 11.9 km/h 96 % 0.0 mm
08:19 7.4 °C 7.0 °C 1013.1 hPa West 10.5 km/h 11.9 km/h 96 % 0.0 mm
08:24 7.7 °C 7.0 °C 1014.1 hPa WNW 4.7 km/h 10.5 km/h 96 % 0.0 mm
08:29 7.9 °C 8.0 °C 1014.1 hPa Calm   10.1 km/h 96 % 0.0 mm
08:35 8.1 °C 8.0 °C 1014.1 hPa West 4.0 km/h 10.1 km/h 96 % 0.0 mm
08:40 8.3 °C 8.0 °C 1014.1 hPa West 5.8 km/h 6.4 km/h 95 % 0.0 mm
08:45 8.3 °C 8.0 °C 1014.1 hPa WSW 2.1 km/h 9.3 km/h 95 % 0.0 mm
08:50 8.5 °C 8.0 °C 1014.1 hPa West 7.9 km/h 9.3 km/h 95 % 0.0 mm
08:55 8.8 °C 9.0 °C 1014.1 hPa WNW 4.7 km/h 9.0 km/h 95 % 0.0 mm
09:00 9.0 °C 9.0 °C 1014.1 hPa NNW 6.1 km/h 10.5 km/h 95 % 0.0 mm
09:05 9.6 °C 9.0 °C 1014.1 hPa West 2.1 km/h 10.5 km/h 95 % 0.0 mm
09:10 10.1 °C 9.0 °C 1014.1 hPa West 5.0 km/h 7.9 km/h 95 % 0.0 mm
09:15 10.5 °C 10.0 °C 1014.1 hPa NNW 7.9 km/h 9.7 km/h 94 % 0.0 mm
09:20 11.0 °C 9.0 °C 1014.1 hPa NNW 5.8 km/h 11.9 km/h 90 % 0.0 mm
09:25 11.1 °C 9.0 °C 1014.1 hPa North 12.6 km/h 12.6 km/h 86 % 0.0 mm
09:30 11.2 °C 9.0 °C 1014.1 hPa North 5.8 km/h 12.6 km/h 85 % 0.0 mm
09:35 10.9 °C 8.0 °C 1014.1 hPa North 2.6 km/h 13.7 km/h 81 % 0.0 mm
09:40 10.5 °C 7.0 °C 1014.1 hPa NNW 2.6 km/h 13.7 km/h 76 % 0.0 mm
09:45 10.4 °C 7.0 °C 1014.1 hPa NNW 6.1 km/h 10.5 km/h 77 % 0.0 mm
09:50 11.4 °C 8.0 °C 1014.1 hPa North 2.6 km/h 10.1 km/h 78 % 0.0 mm
09:55 11.0 °C 6.0 °C 1014.1 hPa WNW 7.9 km/h 15.4 km/h 71 % 0.0 mm
10:00 10.8 °C 6.0 °C 1014.1 hPa NNE 5.8 km/h 15.4 km/h 71 % 0.0 mm
10:05 11.7 °C 7.0 °C 1014.1 hPa NNW 7.9 km/h 14.0 km/h 73 % 0.0 mm
10:10 11.0 °C 6.0 °C 1014.1 hPa NNW 10.1 km/h 14.0 km/h 68 % 0.0 mm
10:15 10.7 °C 6.0 °C 1014.1 hPa North 5.5 km/h 16.3 km/h 70 % 0.0 mm
10:21 10.6 °C 5.0 °C 1014.1 hPa West 7.9 km/h 16.3 km/h 69 % 0.0 mm
10:26 10.8 °C 6.0 °C 1014.1 hPa NNE 2.1 km/h 12.6 km/h 70 % 0.0 mm
10:31 12.2 °C 7.0 °C 1014.1 hPa NE 2.6 km/h 10.5 km/h 69 % 0.0 mm
10:36 12.8 °C 7.0 °C 1014.1 hPa NW 6.9 km/h 13.0 km/h 66 % 0.0 mm
10:41 12.2 °C 5.0 °C 1014.1 hPa West 4.3 km/h 14.0 km/h 62 % 0.0 mm
10:46 11.6 °C 5.0 °C 1014.1 hPa NW 9.7 km/h 14.0 km/h 62 % 0.0 mm
10:51 11.5 °C 4.0 °C 1014.1 hPa North 12.6 km/h 13.7 km/h 61 % 0.0 mm
10:56 11.6 °C 4.0 °C 1014.1 hPa NNW 13.0 km/h 13.7 km/h 59 % 0.0 mm
11:01 11.7 °C 4.0 °C 1014.1 hPa NNW 9.7 km/h 13.7 km/h 58 % 0.0 mm
11:06 11.6 °C 4.0 °C 1015.1 hPa North 2.6 km/h 13.7 km/h 59 % 0.0 mm
11:11 11.5 °C 3.0 °C 1015.1 hPa ENE 5.5 km/h 9.0 km/h 57 % 0.0 mm
11:16 11.5 °C 3.0 °C 1015.1 hPa North 6.4 km/h 13.7 km/h 56 % 0.0 mm
11:21 11.4 °C 3.0 °C 1015.1 hPa WNW 7.9 km/h 16.3 km/h 55 % 0.0 mm
11:26 11.8 °C 3.0 °C 1015.1 hPa NNW 5.5 km/h 16.3 km/h 56 % 0.0 mm
11:31 12.7 °C 4.0 °C 1015.1 hPa North 10.8 km/h 17.2 km/h 55 % 0.0 mm
11:36 13.7 °C 6.0 °C 1014.1 hPa North 12.2 km/h 17.2 km/h 57 % 0.0 mm
11:41 14.1 °C 5.0 °C 1014.1 hPa West 5.5 km/h 13.7 km/h 52 % 0.0 mm
11:46 13.3 °C 3.0 °C 1014.1 hPa North 6.9 km/h 13.7 km/h 50 % 0.0 mm
11:52 13.5 °C 3.0 °C 1014.1 hPa NE 5.5 km/h 14.0 km/h 49 % 0.0 mm
11:57 13.4 °C 3.0 °C 1014.1 hPa WNW 6.1 km/h 14.0 km/h 50 % 0.0 mm
12:02 14.7 °C 5.0 °C 1014.1 hPa NNW 6.4 km/h 14.0 km/h 50 % 0.0 mm
12:07 14.7 °C 4.0 °C 1014.1 hPa North 4.7 km/h 13.7 km/h 49 % 0.0 mm
12:12 13.3 °C 3.0 °C 1014.1 hPa WNW 15.8 km/h 15.8 km/h 47 % 0.0 mm
12:17 12.6 °C 2.0 °C 1014.1 hPa NW 6.1 km/h 15.8 km/h 48 % 0.0 mm
12:22 12.2 °C 2.0 °C 1015.1 hPa NNW 8.7 km/h 17.2 km/h 49 % 0.0 mm
12:27 12.1 °C 3.0 °C 1015.1 hPa NNW 4.0 km/h 17.2 km/h 51 % 0.0 mm
12:32 12.7 °C 3.0 °C 1015.1 hPa North 6.1 km/h 16.6 km/h 52 % 0.0 mm
12:37 12.2 °C 3.0 °C 1014.1 hPa NNW 10.1 km/h 16.9 km/h 52 % 0.0 mm
12:42 12.0 °C 3.0 °C 1014.1 hPa WNW 7.9 km/h 16.9 km/h 52 % 0.0 mm
12:47 13.5 °C 4.0 °C 1014.1 hPa NNW 6.1 km/h 14.8 km/h 52 % 0.0 mm
12:52 14.0 °C 4.0 °C 1014.1 hPa NE 6.9 km/h 13.0 km/h 51 % 0.0 mm
12:57 12.9 °C 3.0 °C 1014.1 hPa NNW 10.5 km/h 17.7 km/h 50 % 0.0 mm
13:02 13.5 °C 4.0 °C 1014.1 hPa West 10.5 km/h 17.7 km/h 50 % 0.0 mm
13:07 12.7 °C 3.0 °C 1015.1 hPa North 4.3 km/h 14.0 km/h 49 % 0.0 mm
13:12 14.1 °C 4.0 °C 1015.1 hPa North 6.4 km/h 11.6 km/h 49 % 0.0 mm
13:17 14.4 °C 3.0 °C 1015.1 hPa WNW 5.8 km/h 12.6 km/h 47 % 0.0 mm
13:22 15.4 °C 4.0 °C 1014.1 hPa North 7.9 km/h 13.0 km/h 47 % 0.0 mm
13:27 14.0 °C 3.0 °C 1014.1 hPa North 10.5 km/h 16.3 km/h 46 % 0.0 mm
13:32 13.5 °C 3.0 °C 1014.1 hPa North 10.1 km/h 16.9 km/h 46 % 0.0 mm
13:37 13.2 °C 3.0 °C 1015.1 hPa North 6.4 km/h 16.9 km/h 47 % 0.0 mm
13:43 13.1 °C 2.0 °C 1015.1 hPa NNW 11.6 km/h 12.2 km/h 47 % 0.0 mm
13:48 13.4 °C 3.0 °C 1015.1 hPa NE 3.5 km/h 16.6 km/h 47 % 0.0 mm
13:53 14.3 °C 4.0 °C 1015.1 hPa NNW 6.1 km/h 16.6 km/h 48 % 0.0 mm
13:58 14.6 °C 4.0 °C 1015.1 hPa North 9.3 km/h 12.6 km/h 47 % 0.0 mm
14:03 13.8 °C 3.0 °C 1015.1 hPa NNE 11.9 km/h 16.6 km/h 46 % 0.0 mm
14:08 13.6 °C 3.0 °C 1015.1 hPa North 9.0 km/h 17.2 km/h 46 % 0.0 mm
14:13 13.3 °C 3.0 °C 1015.1 hPa North 9.0 km/h 17.2 km/h 47 % 0.0 mm
14:18 13.2 °C 3.0 °C 1015.1 hPa North 7.9 km/h 16.6 km/h 47 % 0.0 mm
14:23 13.4 °C 3.0 °C 1015.1 hPa NNW 6.4 km/h 13.7 km/h 47 % 0.0 mm
14:28 14.5 °C 3.0 °C 1015.1 hPa NW 5.5 km/h 12.6 km/h 46 % 0.0 mm
14:33 15.3 °C 4.0 °C 1015.1 hPa West 10.5 km/h 13.7 km/h 46 % 0.0 mm
14:38 14.7 °C 3.0 °C 1015.1 hPa SSW 12.2 km/h 13.7 km/h 46 % 0.0 mm
14:43 13.4 °C 2.0 °C 1015.1 hPa North 6.4 km/h 13.7 km/h 45 % 0.0 mm
14:48 13.2 °C 2.0 °C 1015.1 hPa WNW 8.7 km/h 15.8 km/h 45 % 0.0 mm
14:53 14.8 °C 3.0 °C 1015.1 hPa West 14.0 km/h 15.8 km/h 45 % 0.0 mm
14:58 15.4 °C 4.0 °C 1015.1 hPa NW 16.6 km/h 19.5 km/h 46 % 0.0 mm
15:03 14.8 °C 3.0 °C 1015.1 hPa WNW 5.0 km/h 19.5 km/h 46 % 0.0 mm
15:08 14.2 °C 3.0 °C 1015.1 hPa NNE 4.7 km/h 16.9 km/h 45 % 0.0 mm
15:13 14.9 °C 4.0 °C 1015.1 hPa NW 9.3 km/h 16.9 km/h 46 % 0.0 mm
15:18 15.8 °C 4.0 °C 1015.1 hPa WNW 6.4 km/h 13.7 km/h 45 % 0.0 mm
15:23 16.1 °C 4.0 °C 1014.1 hPa NNE 10.1 km/h 25.6 km/h 44 % 0.0 mm
15:28 15.9 °C 4.0 °C 1014.1 hPa NNE 9.7 km/h 25.6 km/h 44 % 0.0 mm
15:33 14.5 °C 3.0 °C 1014.1 hPa North 7.6 km/h 21.9 km/h 44 % 0.0 mm
15:38 13.6 °C 2.0 °C 1014.1 hPa NNW 10.5 km/h 20.6 km/h 45 % 0.0 mm
15:44 13.8 °C 3.0 °C 1014.1 hPa NNW 7.2 km/h 20.6 km/h 46 % 0.0 mm
15:49 13.7 °C 3.0 °C 1014.1 hPa WNW 5.0 km/h 16.6 km/h 46 % 0.0 mm
15:54 13.5 °C 3.0 °C 1015.1 hPa NNE 4.3 km/h 16.6 km/h 46 % 0.0 mm
15:59 13.2 °C 2.0 °C 1015.1 hPa North 4.3 km/h 17.2 km/h 46 % 0.0 mm
16:04 13.4 °C 3.0 °C 1015.1 hPa WNW 8.7 km/h 17.2 km/h 47 % 0.0 mm
16:09 13.3 °C 3.0 °C 1014.1 hPa North 15.8 km/h 16.9 km/h 47 % 0.0 mm
16:14 12.9 °C 2.0 °C 1014.1 hPa NNE 9.7 km/h 16.3 km/h 47 % 0.0 mm
16:19 13.5 °C 3.0 °C 1014.1 hPa NNW 5.0 km/h 16.3 km/h 47 % 0.0 mm
16:24 13.8 °C 3.0 °C 1014.1 hPa NNW 12.6 km/h 19.8 km/h 46 % 0.0 mm
16:29 13.8 °C 3.0 °C 1014.1 hPa SW 8.7 km/h 19.8 km/h 47 % 0.0 mm
16:30 13.8 °C 3.0 °C 1014.1 hPa NNE 6.1 km/h 19.8 km/h 47 % 0.0 mm
16:35 13.6 °C 3.0 °C 1014.1 hPa NNW 16.9 km/h 16.9 km/h 46 % 0.0 mm
16:40 14.9 °C 4.0 °C 1015.1 hPa NW 6.9 km/h 16.9 km/h 46 % 0.0 mm
16:45 15.1 °C 3.0 °C 1015.1 hPa NNE 16.9 km/h 16.9 km/h 44 % 0.0 mm
16:50 15.1 °C 3.0 °C 1015.1 hPa NNW 6.9 km/h 16.9 km/h 45 % 0.0 mm
16:55 14.0 °C 3.0 °C 1014.1 hPa North 12.2 km/h 17.2 km/h 45 % 0.0 mm
17:00 13.3 °C 2.0 °C 1014.1 hPa West 6.9 km/h 17.2 km/h 45 % 0.0 mm
17:05 13.2 °C 2.0 °C 1015.1 hPa North 10.5 km/h 15.8 km/h 46 % 0.0 mm
17:10 13.5 °C 3.0 °C 1015.1 hPa East 5.5 km/h 12.2 km/h 46 % 0.0 mm
17:15 14.5 °C 3.0 °C 1015.1 hPa North 4.3 km/h 13.7 km/h 46 % 0.0 mm
17:20 14.8 °C 3.0 °C 1015.1 hPa North 6.1 km/h 21.6 km/h 45 % 0.0 mm
17:21 14.8 °C 3.0 °C 1015.1 hPa NNE 16.6 km/h 21.6 km/h 45 % 0.0 mm
17:26 13.8 °C 2.0 °C 1015.1 hPa NNE 5.0 km/h 21.6 km/h 45 % 0.0 mm
17:31 14.6 °C 3.0 °C 1015.1 hPa NNW 12.6 km/h 19.5 km/h 45 % 0.0 mm
17:36 15.6 °C 4.0 °C 1015.1 hPa NNW 5.0 km/h 19.5 km/h 45 % 0.0 mm
17:42 14.5 °C 3.0 °C 1015.1 hPa WNW 10.1 km/h 16.3 km/h 44 % 0.0 mm
17:47 14.9 °C 3.0 °C 1015.1 hPa NNW 11.9 km/h 16.3 km/h 43 % 0.0 mm
17:52 15.3 °C 3.0 °C 1015.1 hPa WSW 13.0 km/h 13.7 km/h 43 % 0.0 mm
17:57 15.2 °C 3.0 °C 1015.1 hPa NNE 12.2 km/h 13.0 km/h 43 % 0.0 mm
18:02 15.2 °C 3.0 °C 1015.1 hPa NNE 9.7 km/h 12.6 km/h 43 % 0.0 mm
18:07 15.1 °C 3.0 °C 1015.1 hPa NNE 12.6 km/h 13.0 km/h 43 % 0.0 mm
18:12 14.9 °C 3.0 °C 1015.1 hPa North 16.3 km/h 16.6 km/h 44 % 0.0 mm
18:17 14.7 °C 2.0 °C 1015.1 hPa NW 4.7 km/h 16.6 km/h 43 % 0.0 mm
18:22 14.5 °C 2.0 °C 1015.1 hPa North 8.7 km/h 16.3 km/h 43 % 0.0 mm
18:27 13.7 °C 1.0 °C 1015.1 hPa North 9.7 km/h 16.9 km/h 43 % 0.0 mm
18:32 13.4 °C 2.0 °C 1015.1 hPa North 12.2 km/h 16.9 km/h 44 % 0.0 mm
18:37 13.4 °C 2.0 °C 1016.1 hPa WNW 4.3 km/h 15.8 km/h 44 % 0.0 mm
18:42 14.1 °C 2.0 °C 1016.1 hPa North 10.1 km/h 13.0 km/h 44 % 0.0 mm
18:47 13.6 °C 2.0 °C 1016.1 hPa NNW 10.5 km/h 11.6 km/h 44 % 0.0 mm
18:52 13.8 °C 2.0 °C 1015.1 hPa West 1.8 km/h 11.6 km/h 44 % 0.0 mm
18:57 13.9 °C 2.0 °C 1015.1 hPa North 9.0 km/h 9.0 km/h 44 % 0.0 mm
19:02 13.6 °C 2.0 °C 1015.1 hPa NNW 5.0 km/h 10.1 km/h 44 % 0.0 mm
19:07 13.7 °C 2.0 °C 1016.1 hPa NNE 10.1 km/h 11.6 km/h 44 % 0.0 mm
19:12 13.6 °C 1.0 °C 1016.1 hPa NNE 9.0 km/h 13.0 km/h 43 % 0.0 mm
19:17 13.7 °C 1.0 °C 1016.1 hPa North 4.7 km/h 13.0 km/h 43 % 0.0 mm
19:22 13.7 °C 1.0 °C 1016.1 hPa North 10.1 km/h 10.5 km/h 43 % 0.0 mm
19:27 13.5 °C 1.0 °C 1016.1 hPa North 4.3 km/h 10.5 km/h 43 % 0.0 mm
19:32 13.4 °C 1.0 °C 1016.1 hPa NW 5.5 km/h 10.1 km/h 43 % 0.0 mm
19:37 13.5 °C 1.0 °C 1016.1 hPa NNW 5.0 km/h 9.7 km/h 43 % 0.0 mm
19:42 13.3 °C 1.0 °C 1016.1 hPa North 5.0 km/h 9.7 km/h 43 % 0.0 mm
19:47 13.0 °C 1.0 °C 1016.1 hPa NNW 5.0 km/h 9.7 km/h 43 % 0.0 mm
19:48 13.0 °C 1.0 °C 1016.1 hPa NE 8.7 km/h 10.1 km/h 43 % 0.0 mm
19:53 12.7 °C 1.0 °C 1016.1 hPa North 6.4 km/h 10.1 km/h 43 % 0.0 mm
19:58 12.5 °C 1.0 °C 1016.1 hPa North 6.1 km/h 7.9 km/h 44 % 0.0 mm
20:03 11.9 °C 0.0 °C 1016.1 hPa NNW 6.1 km/h 7.9 km/h 44 % 0.0 mm
20:08 11.5 °C 0.0 °C 1016.1 hPa NNW 5.8 km/h 7.9 km/h 44 % 0.0 mm
20:13 11.2 °C 0.0 °C 1016.1 hPa NNE 2.6 km/h 7.6 km/h 44 % 0.0 mm
20:18 10.9 °C 0.0 °C 1016.1 hPa NW 2.6 km/h 9.7 km/h 45 % 0.0 mm
20:23 10.7 °C -1.0 °C 1016.1 hPa North 6.4 km/h 9.7 km/h 45 % 0.0 mm
20:28 10.5 °C -1.0 °C 1016.1 hPa NNW 2.1 km/h 6.4 km/h 45 % 0.0 mm
20:33 10.3 °C -1.0 °C 1016.1 hPa WNW 1.4 km/h 6.4 km/h 46 % 0.0 mm
20:38 10.1 °C -1.0 °C 1016.1 hPa NNW 5.0 km/h 5.8 km/h 46 % 0.0 mm
20:43 9.9 °C -1.0 °C 1016.1 hPa Calm   5.8 km/h 46 % 0.0 mm
20:48 9.7 °C -1.0 °C 1016.1 hPa North 3.2 km/h 4.7 km/h 47 % 0.0 mm
20:53 9.5 °C -1.0 °C 1016.1 hPa West 1.4 km/h 4.7 km/h 47 % 0.0 mm
20:58 9.3 °C -1.0 °C 1016.1 hPa Calm   4.0 km/h 47 % 0.0 mm
21:03 9.2 °C -1.0 °C 1016.1 hPa Calm     47 % 0.0 mm
21:08 9.0 °C -1.0 °C 1016.1 hPa Calm     48 % 0.0 mm
21:14 8.7 °C -1.0 °C 1016.1 hPa Calm     48 % 0.0 mm
21:19 8.5 °C -1.0 °C 1016.1 hPa Calm     49 % 0.0 mm
21:24 8.4 °C -1.0 °C 1016.8 hPa Calm     49 % 0.0 mm
21:26 8.2 °C -1.0 °C 1016.8 hPa Calm   3.2 km/h 50 % 0.0 mm
21:31 8.1 °C -1.0 °C 1016.8 hPa Calm   3.2 km/h 50 % 0.0 mm
21:36 8.0 °C -1.0 °C 1016.8 hPa Calm     52 % 0.0 mm
21:41 7.8 °C -1.0 °C 1016.8 hPa Calm     53 % 0.0 mm
21:46 7.7 °C -1.0 °C 1016.8 hPa Calm     54 % 0.0 mm
21:51 7.7 °C -1.0 °C 1016.8 hPa Calm     55 % 0.0 mm
21:56 7.5 °C -1.0 °C 1016.8 hPa Calm     56 % 0.0 mm
22:01 7.4 °C -1.0 °C 1016.8 hPa Calm     57 % 0.0 mm
22:06 7.3 °C 0.0 °C 1016.8 hPa Calm     58 % 0.0 mm
22:11 7.2 °C 0.0 °C 1016.8 hPa Calm     59 % 0.0 mm
22:16 7.1 °C 0.0 °C 1016.8 hPa Calm     59 % 0.0 mm
22:17 7.1 °C 0.0 °C 1016.8 hPa Calm     59 % 0.0 mm
22:22 7.0 °C 0.0 °C 1016.8 hPa Calm     60 % 0.0 mm
22:27 7.0 °C 0.0 °C 1016.8 hPa Calm     61 % 0.0 mm
22:28 7.0 °C 0.0 °C 1016.8 hPa Calm     61 % 0.0 mm
22:33 7.0 °C 0.0 °C 1016.8 hPa Calm     62 % 0.0 mm
22:38 7.0 °C 1.0 °C 1016.8 hPa Calm     63 % 0.0 mm
22:43 6.9 °C 1.0 °C 1016.8 hPa Calm     64 % 0.0 mm
22:48 6.9 °C 1.0 °C 1016.8 hPa Calm     64 % 0.0 mm
22:53 6.8 °C 1.0 °C 1016.8 hPa Calm     65 % 0.0 mm
22:58 6.8 °C 1.0 °C 1016.8 hPa Calm     65 % 0.0 mm
23:03 6.8 °C 1.0 °C 1016.8 hPa Calm     66 % 0.0 mm
23:08 6.8 °C 1.0 °C 1016.8 hPa Calm     66 % 0.0 mm
23:13 6.8 °C 1.0 °C 1016.8 hPa Calm     67 % 0.0 mm
23:18 6.8 °C 1.0 °C 1016.8 hPa Calm     67 % 0.0 mm
23:23 6.8 °C 1.0 °C 1016.8 hPa Calm     68 % 0.0 mm
23:28 6.8 °C 1.0 °C 1016.8 hPa Calm     69 % 0.0 mm
23:33 6.7 °C 1.0 °C 1016.8 hPa Calm     69 % 0.0 mm
23:38 6.7 °C 1.0 °C 1016.8 hPa Calm     69 % 0.0 mm
23:43 6.6 °C 2.0 °C 1016.8 hPa Calm     70 % 0.0 mm
23:48 6.5 °C 2.0 °C 1016.8 hPa Calm     70 % 0.0 mm
23:53 6.5 °C 2.0 °C 1016.1 hPa Calm     70 % 0.0 mm
23:58 6.5 °C 2.0 °C 1016.1 hPa Calm     71 % 0.0 mm
Le Gheer Warneton
Courtoisie de Weather Underground - 2.25 mb

Mise a jour : 17/12/2017 22:29:12
Généré par Cumulus 1.9.4 (1099)